Regional Weather Roundup
Issued by NWS

Home | Current Version | Previous Version | Graphics & Text | Print | Product List | Glossary Off
Versions: 1 2 3 4 5 6 7 8 9 10 11 12 13 14 15 16 17 18 19 20 21 22 23 24 25 26 27 28 29 30 31 32 33 34 35 36 37 38 39 40 41 42 43 44 45 46 47 48 49 50

561
ASUS43 KMPX 250010
RWRMN
WEATHER ROUNDUP FOR MINNESOTA
NATIONAL WEATHER SERVICE TWIN CITIES/CHANHASSEN MN
700 PM CDT SAT SEP 24 2016


NOTE: "FAIR" INDICATES FEW OR NO CLOUDS BELOW 12,000 FEET WITH NO
SIGNIFICANT WEATHER AND/OR OBSTRUCTIONS TO VISIBILITY. N/A MEANS
CURRENT SKY AND/OR WEATHER CONDITIONS ARE NOT AVAILABLE.

MNZ060>063-068>070-250100-
   Twin Cities Metro

CITY           SKY/WX    TMP DP  RH WIND       PRES   REMARKS
TWIN CITIES    CLOUDY    68  63  84 SE12      30.02R
6HR MIN TEMP:  68; 6HR MAX TEMP:  73;

ST PAUL        CLOUDY    68  63  84 SE15      30.02R
CRYSTAL        CLOUDY    68  61  78 SE14      29.99R
BLAINE         CLOUDY    70  66  88 SE10G17   30.00R
LAKEVILLE      CLOUDY    66  66 100 SE10      30.02R
EDEN PRAIRIE   CLOUDY    70  64  81 SE13      29.99R
6HR MIN TEMP:  70; 6HR MAX TEMP:  76;

LAKEVILLE      CLOUDY    66  66 100 SE10      30.02R
SOUTH ST PAUL  CLOUDY    68  64  86 SE8G18    30.02R
LAKE ELMO      CLOUDY    68  63  83 SE8       30.04R
$$
MNZ001>005-007-008-013>017-022>024-027-028-250100-
   Northwest Minnesota

CITY           SKY/WX    TMP DP  RH WIND       PRES   REMARKS
BEMIDJI        CLOUDY    64  61  91 SE12      29.95R
HALLOCK        MOCLDY    72  64  78 SE16G24   29.79S
ROSEAU         CLOUDY    66  61  82 SE12G18   29.88S
WARROAD        MOCLDY    66  63  88 SE10G17   29.91R
THIEF RVR FALL CLOUDY    68  62  81 SE20G26   29.86S
CROOKSTON      CLOUDY    70  64  83 S23       29.82S
FOSSTON        CLOUDY    64  61  88 SE16G24   29.89S
DETROIT LAKES  TSTM      64  63  94 SE7       29.90F
MOORHEAD       LGT RAIN  70  66  88 SE14G21   29.82S
PARK RAPIDS    CLOUDY    67  61  81 SE14      29.92F
MAHNOMEN       LGT RAIN  66  63  89 SE18G29   29.86F
$$
MNZ006-009>011-018-025>026-250100-
   North Central Minnesota

CITY           SKY/WX    TMP DP  RH WIND       PRES   REMARKS
BAUDETTE       CLOUDY    65  59  81 SE16G24   29.93R
FLAG ISLAND    PTCLDY    64  61  88 SE7       29.90R
INTL FALLS     CLOUDY    64  59  83 SE14      29.99S
6HR MIN TEMP:  64; 6HR MAX TEMP:  67;

WASKISH        CLOUDY    64  61  88 SE12      29.94F
BIG FORK       CLOUDY    63  61  94 SE9       30.00S
LONGVILLE      CLOUDY    64  61  88 SE6       29.97F
GRAND RAPIDS   CLOUDY    63  60  90 SE10      30.02R
ORR            CLOUDY    61  55  82 SE7       30.02R
COOK           CLOUDY    61  57  88 SE8       30.05F
WALKER         CLOUDY    64  61  90 SE7       29.95F
$$
MNZ012-019>021-037-250100-
   Northeast Minnesota

CITY           SKY/WX    TMP DP  RH WIND       PRES   REMARKS
DULUTH         CLOUDY    62  59  90 E10       30.07F
6HR MIN TEMP:  58; 6HR MAX TEMP:  62;

ELY            CLOUDY    61  55  82 SE8       30.10R
HIBBING        CLOUDY    59  58  96 SE10      30.04F FOG
EVELETH        CLOUDY    60  56  88 SE6       30.08S
DULUTH HARBOR  CLOUDY    61  57  88 NE15      30.07F
TWO HARBORS    CLOUDY    63  57  82 NE10G17   30.08S
SILVER BAY     CLOUDY    61  55  82 NE7       30.10S
GRAND MARAIS     N/A     62  52  69 NE9       30.13R
G MARAIS ARPRT CLOUDY    55  46  71 E7        30.17R
$$
MNZ029>031-032-039>041-046>048-054>057-064-250100-
   West Central Minnesota

CITY           SKY/WX    TMP DP  RH WIND       PRES   REMARKS
FERGUS FALLS   LGT RAIN  68  68 100 SE9       29.87F
WHEATON        LGT RAIN  72  70  94 SE10      29.85R
MORRIS         MOCLDY    70  66  88 SE14      29.87R
ALEXANDRIA     RAIN      68  67  96 SE13      29.93R FOG
ELBOW LAKE     RAIN      68  68  99 SE10G18   29.87R
GLENWOOD       RAIN      66  64  94 S12       29.93F
BENSON         LGT RAIN  68  64  88 S14G21    29.89F
MADISON          N/A     70  70 100 SE10      29.87S
WILLMAR        RAIN      66  66 100 SE9       29.95S
$$
MNZ033>034-036-042>043-049>051-058-059-250100-
   Central Minnesota

CITY           SKY/WX    TMP DP  RH WIND       PRES   REMARKS
ST CLOUD       CLOUDY    67  65  93 SE9G17    29.98R
6HR MIN TEMP:  64; 6HR MAX TEMP:  71;

SAUK CENTRE    LGT RAIN  68  65  91 SE10G18   29.94S
PAYNESVILLE    LGT RAIN  67  67 100 S13       29.97S
AITKIN         CLOUDY    68  59  73 SE9       29.98S
PINE RIVER     CLOUDY    64  63  94 SE10G17   30.00S
BRAINERD       CLOUDY    65  62  90 SE9       29.97F
STAPLES        CLOUDY    64  63  94 SE12      29.94F
LONG PRAIRIE   RAIN      64  63  94 E10       29.94S
LITTLE FALLS   CLOUDY    66  61  82 SE12G18   29.97R
LITCHFIELD     CLOUDY    68  66  94 SW3       30.00R
BUFFALO        CLOUDY    68  63  84 E10G22    29.98R
MAPLE LAKE     CLOUDY    69  65  89 SE8       29.98R
HUTCHINSON     CLOUDY    68  67  97 NW6       30.01R
$$
MNZ037-044-045-052-053-250100-
   East Central Minnesota

CITY           SKY/WX    TMP DP  RH WIND       PRES   REMARKS
PRINCETON      CLOUDY    68  64  88 E12       29.99S
MORA           CLOUDY    64  61  88 SE8       30.02F
CAMBRIDGE      CLOUDY    70  61  73 SE9       29.99S
MOOSE LAKE     CLOUDY    64  61  88 SE3       30.02F
HINCKLEY       CLOUDY    64  63  94 E7        30.03S
CLOQUET        CLOUDY    61  57  88 E7        30.06S
MCGREGOR       CLOUDY    64  61  88 SE13      30.01F
$$
MNZ071>073-080-081-089-090-097-098-250100-
   Southwest Minnesota

CITY           SKY/WX    TMP DP  RH WIND       PRES   REMARKS
MONTEVIDEO     MOCLDY    66  66 100 S7        29.92R
GRANITE FALLS  HVY RAIN  68  66  94 E9        29.92S
CANBY          CLOUDY    69  67  94 E8        29.88F
MARSHALL       MOCLDY    68  65  90 SE15      29.90R
REDWOOD FALLS  CLOUDY    67  65  93 NE5       29.93R
OLIVIA         LGT RAIN  68  64  88 E7        29.95R
PIPESTONE      MOCLDY    70  66  88 S7        29.90S
WINDOM         MOCLDY    72  70  94 SE8       29.92S
WORTHINGTON    CLOUDY    70  68  93 NW3       29.93R
JACKSON        CLOUDY    70  66  88 SE8       29.95R
TRACY          CLOUDY    68  67  98 SE5       29.92S
$$
MNZ065>067-074>077-082>085-091>093-250100-
   South Central Minnesota

CITY           SKY/WX    TMP DP  RH WIND       PRES   REMARKS
MANKATO        CLOUDY    76  67  73 E12       29.96R
NEW ULM        LGT RAIN  70  66  88 E5        29.94R
ST JAMES       TSTM      70  64  83 SE8       29.95F
FAIRMONT       CLOUDY    72  69  90 SE8       29.95S
GLENCOE        CLOUDY    74  69  85 NW12      29.99R
FARIBAULT      CLOUDY    70  64  83 E12       30.01R
OWATONNA       PTCLDY    70  63  78 SE15G21   30.01R
WASECA         CLOUDY    72  64  78 E12       30.00S
ALBERT LEA     CLOUDY    73  66  78 E9        30.00R
$$
MNZ078>079-086>088-094>096-250100-
   Southeast Minnesota

CITY           SKY/WX    TMP DP  RH WIND       PRES   REMARKS
ROCHESTER      CLOUDY    67  64  90 SE16      30.05S
6HR MIN TEMP:  67; 6HR MAX TEMP:  71;

RED WING       CLOUDY    70  63  78 SE14      30.03S
DODGE CENTER   MOCLDY    68  63  83 SE10      30.04R
WINONA         CLOUDY    70  64  83 SE7       30.07S
AUSTIN         PTCLDY    70  64  83 E9        30.03R
PRESTON        CLOUDY    66  62  86 SE8       30.07S
$$
ABBREVIATIONS USED IN REMARKS
   TC - TEMPERATURES IN CELSIUS
  WCI - WIND CHILL INDEX
   HX - HEAT INDEX
  VSB - VISIBILITY
$$




USA.gov is the U.S. government's official web portal to all federal, state and local government web resources and services.